Hourly Data Report for October 04, 2019

SHEARWATER RCS
NOVA SCOTIA
Current Station Operator: ECCC - MSC

44°37'47.000" N
63°30'48.000" W
24.00 m
8205092
71264
AAW

Download Data

Hourly Data (October 2019)
Hourly Data Report for October 4, 2019
TIME
LST
Temp Definition
°C
Dew Point Definition
°C
Rel Hum Definition
%
Precip. Amount Definition
mm

Wind Dir Definition
10's deg

Wind Spd Definition
km/h
Visibility Definition
km
Stn Press Definition
kPa
Hmdx Definition


Wind Chill Definition


Weather Definition


00:00 7.2 3.2 76 0.0 34 2   101.54     LegendNANA
01:00 7.0 3.3 78 0.0 36 2   101.52     LegendNANA
02:00 7.2 3.6 78 0.0 3 2   101.42     LegendNANA
03:00 7.7 4.0 77 0.0 0 1   101.36     LegendNANA
04:00 7.0 3.6 79 0.0 5 10   101.22     LegendNANA
05:00 7.2 2.7 73 0.0 3 7   101.21     LegendNANA
06:00 7.4 2.3 70 0.0 35 1   101.15     LegendNANA
07:00 7.1 2.9 74 0.0 9 2   101.10     LegendNANA
08:00 7.4 4.5 82 0.0 6 8   101.01     LegendNANA
09:00 8.4 5.9 84 0.5 22 6   101.03     LegendNANA
10:00 8.1 5.1 81 0.6 22 3   100.98     LegendNANA
11:00 7.7 5.0 83 0.5 1 14   100.90     LegendNANA
12:00 7.7 3.4 74 0.0 3 16   100.85     LegendNANA
13:00 8.6 3.1 68 0.0 2 16   100.79     LegendNANA
14:00 9.8 3.4 64 0.0 36 14   100.75     LegendNANA
15:00 9.6 3.6 66 0.0 1 15   100.74     LegendNANA
16:00 9.5 3.5 66 0.0 36 16   100.76     LegendNANA
17:00 8.4 2.6 67 0.0 34 19   100.82     LegendNANA
18:00 6.7 3.3 79 0.0 34 19   100.92     LegendNANA
19:00 6.5 3.0 78 0.0 34 16   101.01     LegendNANA
20:00 6.3 1.9 73 0.0 34 16   101.05     LegendNANA
21:00 5.7 1.5 74 0.0 34 18   101.11     LegendNANA
22:00 5.1 1.2 76 0.0 33 18   101.17     LegendNANA
23:00 4.6 1.1 78 0.0 33 19   101.23     LegendNANA

Notes on Data Quality.

Legend

  • E = Estimated
  • M = Missing
  • NA = Not Available*
  • [empty] = Indicates an unobserved value
Date modified: